• In Hungary
  • List of Countries
  • For 7 days
  • Water Temperature
  • Satellite Maps
  • Weather Map
  • News
  • Weather Widgets
  • user-avatar
    Login

    Hourly Weather Suvorovo

    Today, 20 October, Saturday

    Time Temperature Precipitation Wind Pressure Humidity
    00:00 +12°C° 0 mm 2 mps 739 mmHg 91%
    01:00 +12°C° 0 mm 2 mps 739 mmHg 93%
    02:00 +10°C° 0 mm 2 mps 739 mmHg 95%
    03:00 +10°C° 0 mm 3 mps 739 mmHg 95%
    04:00 +9°C° 0 mm 3 mps 740 mmHg 96%
    05:00 +9°C° 0 mm 3 mps 740 mmHg 96%
    06:00 +9°C° 0 mm 3 mps 740 mmHg 93%
    07:00 +9°C° 0 mm 3 mps 740 mmHg 91%
    08:00 +10°C° 0 mm 4 mps 741 mmHg 87%
    09:00 +10°C° 0 mm 4 mps 741 mmHg 81%
    10:00 +11°C° 0 mm 4 mps 741 mmHg 75%
    11:00 +12°C° 0 mm 4 mps 741 mmHg 69%
    12:00 +12°C° 0 mm 4 mps 741 mmHg 65%
    13:00 +12°C° 0 mm 3 mps 741 mmHg 62%
    14:00 +12°C° 0 mm 3 mps 741 mmHg 59%
    15:00 +11°C° 0 mm 3 mps 741 mmHg 62%
    16:00 +10°C° 0 mm 3 mps 741 mmHg 65%
    17:00 +9°C° 0 mm 3 mps 741 mmHg 68%
    18:00 +8°C° 0 mm 3 mps 741 mmHg 69%
    19:00 +8°C° 0 mm 3 mps 742 mmHg 71%
    20:00 +7°C° 0 mm 3 mps 742 mmHg 72%
    21:00 +7°C° 0 mm 3 mps 742 mmHg 74%
    22:00 +5°C° 0 mm 3 mps 742 mmHg 75%
    23:00 +6°C° 0 mm 2 mps 742 mmHg 77%

    Tomorrow, 21 October, Sunday

    Time Temperature Precipitation Wind Pressure Humidity
    00:00 +6°C° 0 mm 2 mps 742 mmHg 78%
    01:00 +5°C° 0 mm 2 mps 742 mmHg 80%
    02:00 +5°C° 0 mm 2 mps 742 mmHg 81%
    03:00 +5°C° 0 mm 2 mps 742 mmHg 82%
    04:00 +3°C° 0 mm 3 mps 742 mmHg 83%
    05:00 +3°C° 0 mm 3 mps 742 mmHg 84%
    06:00 +4°C° 0 mm 3 mps 743 mmHg 81%
    07:00 +4°C° 0 mm 3 mps 743 mmHg 78%
    08:00 +5°C° 0 mm 3 mps 743 mmHg 76%
    09:00 +7°C° 0 mm 3 mps 744 mmHg 71%
    10:00 +8°C° 0 mm 3 mps 744 mmHg 66%
    11:00 +9°C° 0 mm 3 mps 744 mmHg 61%
    12:00 +10°C° 0 mm 3 mps 744 mmHg 59%
    13:00 +10°C° 0 mm 3 mps 744 mmHg 58%
    14:00 +11°C° 0 mm 3 mps 744 mmHg 57%
    15:00 +9°C° 0 mm 3 mps 744 mmHg 62%
    16:00 +8°C° 0 mm 3 mps 744 mmHg 68%
    17:00 +7°C° 0 mm 3 mps 744 mmHg 73%
    18:00 +7°C° 0 mm 3 mps 744 mmHg 76%
    19:00 +5°C° 0 mm 3 mps 745 mmHg 78%
    20:00 +5°C° 0 mm 3 mps 745 mmHg 80%
    21:00 +4°C° 0 mm 3 mps 745 mmHg 82%
    22:00 +4°C° 0 mm 3 mps 745 mmHg 83%
    23:00 +4°C° 0 mm 3 mps 745 mmHg 84%

    Day after tomorrow, 22 October, Monday

    Time Temperature Precipitation Wind Pressure Humidity
    00:00 +3°C° 0 mm 3 mps 745 mmHg 85%
    01:00 +3°C° 0 mm 3 mps 745 mmHg 86%
    02:00 +4°C° 0 mm 2 mps 745 mmHg 87%
    03:00 +3°C° 0 mm 3 mps 745 mmHg 88%
    04:00 +3°C° 0 mm 3 mps 745 mmHg 88%
    05:00 +2°C° 0 mm 3 mps 744 mmHg 89%
    06:00 +3°C° 0 mm 3 mps 745 mmHg 86%
    07:00 +4°C° 0 mm 3 mps 745 mmHg 84%
    08:00 +4°C° 0 mm 3 mps 745 mmHg 81%
    09:00 +7°C° 0 mm 3 mps 745 mmHg 76%
    10:00 +8°C° 0 mm 2 mps 744 mmHg 71%
    11:00 +10°C° 0 mm 2 mps 744 mmHg 66%
    12:00 +10°C° 0 mm 2 mps 744 mmHg 66%
    13:00 +12°C° 0 mm 2 mps 743 mmHg 67%
    14:00 +12°C° 0 mm 2 mps 743 mmHg 67%
    15:00 +10°C° 0 mm 2 mps 742 mmHg 72%
    16:00 +10°C° 0 mm 2 mps 742 mmHg 77%
    17:00 +9°C° 0 mm 2 mps 741 mmHg 82%
    18:00 +9°C° 0 mm 2 mps 741 mmHg 84%
    19:00 +9°C° 0 mm 2 mps 741 mmHg 85%
    20:00 +9°C° 0 mm 2 mps 740 mmHg 87%
    21:00 +9°C° 0.3 mm 2 mps 740 mmHg 89%
    22:00 +10°C° 0.3 mm 1 mps 739 mmHg 91%
    23:00 +10°C° 0.3 mm 1 mps 738 mmHg 92%

    23 October, Tuesday

    Time Temperature Precipitation Wind Pressure Humidity
    00:00 +10°C° 0.4 mm 1 mps 738 mmHg 93%
    01:00 +10°C° 0.4 mm 1 mps 737 mmHg 94%
    02:00 +10°C° 0.4 mm 1 mps 737 mmHg 94%
    03:00 +9°C° 0.5 mm 1 mps 736 mmHg 94%
    04:00 +8°C° 0.5 mm 2 mps 735 mmHg 94%
    05:00 +8°C° 0.5 mm 2 mps 735 mmHg 94%
    06:00 +7°C° 0.9 mm 3 mps 735 mmHg 91%
    07:00 +6°C° 0.9 mm 4 mps 734 mmHg 89%
    08:00 +5°C° 0.9 mm 4 mps 734 mmHg 87%
    09:00 +6°C° 0.1 mm 4 mps 734 mmHg 80%
    10:00 +6°C° 0.1 mm 4 mps 734 mmHg 74%
    11:00 +7°C° 0.1 mm 4 mps 734 mmHg 67%
    12:00 +7°C° 0 mm 4 mps 734 mmHg 66%
    13:00 +8°C° 0 mm 5 mps 733 mmHg 64%
    14:00 +8°C° 0 mm 5 mps 733 mmHg 62%
    15:00 +7°C° 0 mm 4 mps 733 mmHg 67%
    16:00 +7°C° 0 mm 4 mps 733 mmHg 71%
    17:00 +6°C° 0 mm 4 mps 732 mmHg 75%
    18:00 +5°C° 0 mm 4 mps 732 mmHg 76%
    19:00 +5°C° 0 mm 4 mps 732 mmHg 78%
    20:00 +5°C° 0 mm 4 mps 731 mmHg 79%
    21:00 +5°C° 0 mm 4 mps 731 mmHg 80%
    22:00 +5°C° 0 mm 4 mps 731 mmHg 81%
    23:00 +5°C° 0 mm 4 mps 730 mmHg 82%

    24 October, Wednesday

    Time Temperature Precipitation Wind Pressure Humidity
    00:00 +5°C° 0 mm 4 mps 730 mmHg 83%
    01:00 +5°C° 0 mm 4 mps 729 mmHg 83%
    02:00 +5°C° 0 mm 4 mps 729 mmHg 83%
    03:00 +4°C° 0.1 mm 4 mps 728 mmHg 81%
    04:00 +4°C° 0.1 mm 4 mps 727 mmHg 79%
    05:00 +4°C° 0.1 mm 4 mps 727 mmHg 77%
    06:00 +3°C° 0 mm 5 mps 726 mmHg 76%
    07:00 +3°C° 0 mm 5 mps 726 mmHg 75%
    08:00 +3°C° 0 mm 6 mps 725 mmHg 74%
    09:00 +4°C° 0 mm 6 mps 725 mmHg 72%
    10:00 +5°C° 0 mm 7 mps 724 mmHg 69%
    11:00 +5°C° 0 mm 7 mps 724 mmHg 66%
    12:00 +5°C° 0.2 mm 8 mps 723 mmHg 69%
    13:00 +5°C° 0.2 mm 8 mps 722 mmHg 72%
    14:00 +6°C° 0.2 mm 8 mps 721 mmHg 75%
    15:00 +5°C° 0.6 mm 8 mps 721 mmHg 78%
    16:00 +5°C° 0.6 mm 7 mps 720 mmHg 82%
    17:00 +5°C° 0.6 mm 7 mps 719 mmHg 85%
    18:00 +5°C° 0.7 mm 7 mps 719 mmHg 86%
    19:00 +5°C° 0.7 mm 6 mps 718 mmHg 87%
    20:00 +5°C° 0.7 mm 6 mps 718 mmHg 88%
    21:00 +5°C° 0.3 mm 6 mps 717 mmHg 88%
    22:00 +5°C° 0.3 mm 6 mps 717 mmHg 87%
    23:00 +5°C° 0.3 mm 6 mps 717 mmHg 87%

    25 October, Thursday

    Time Temperature Precipitation Wind Pressure Humidity
    00:00 +5°C° 0 mm 6 mps 716 mmHg 86%
    01:00 +5°C° 0 mm 6 mps 716 mmHg 86%
    02:00 +6°C° 0 mm 5 mps 716 mmHg 85%
    03:00 +5°C° 0.1 mm 5 mps 716 mmHg 84%
    04:00 +4°C° 0.1 mm 6 mps 716 mmHg 83%
    05:00 +4°C° 0.1 mm 6 mps 716 mmHg 83%
    06:00 +3°C° 0 mm 6 mps 717 mmHg 82%
    07:00 +3°C° 0 mm 6 mps 717 mmHg 82%
    08:00 +3°C° 0 mm 6 mps 717 mmHg 82%
    09:00 +3°C° 0 mm 6 mps 717 mmHg 81%
    10:00 +3°C° 0 mm 6 mps 717 mmHg 79%
    11:00 +3°C° 0 mm 6 mps 717 mmHg 78%
    12:00 +3°C° 0.2 mm 6 mps 717 mmHg 79%
    13:00 +3°C° 0.2 mm 6 mps 717 mmHg 79%
    14:00 +3°C° 0.2 mm 6 mps 717 mmHg 80%
    15:00 +3°C° 0.5 mm 6 mps 718 mmHg 80%
    16:00 +3°C° 0.5 mm 6 mps 718 mmHg 79%
    17:00 +3°C° 0.5 mm 6 mps 719 mmHg 79%
    18:00 +2°C° 0.1 mm 6 mps 720 mmHg 79%
    19:00 +2°C° 0.1 mm 6 mps 720 mmHg 79%
    20:00 +2°C° 0.1 mm 6 mps 721 mmHg 80%
    21:00 +2°C° 0.1 mm 6 mps 721 mmHg 79%
    22:00 +1°C° 0.1 mm 6 mps 722 mmHg 79%
    23:00 +1°C° 0.1 mm 6 mps 723 mmHg 78%
    Show more